Weather in Kukshenery

Russia / Mari El Republic     55°56′46″N   48°12′48″E
temp.,
°C
wind,
m/s
gust,
m/s
humid.,
%
clouds,
%
prec.,
mm/h
press.,
hPa
HPBL,
m
26 february, fri
fri2600:00−18se499497 0.0 1017322
03:00−18ese499697 0.1 1017270
06:00−20ese379889 0.0 1016159
09:00−18se589593 0.1 1016317
12:00−14se6992100 0.0 1014471
15:00−12se71290100 0.1 1012594
18:00−11se91693100 0.6 1006597
21:00−11se91794100 5.3 1001656
27 february, sat
sat2700:00−10se71394100 4.1 997452
03:00−9ese4796100 5.1 996187
06:00−8e3596100 1.1 995136
09:00−7ene3496100 2.1 995152
12:00−6ne4695100 1.0 996297
15:00−7ne5793100 1.8 998470
18:00−9nne5994100 0.5 1001516
21:00−12n599298 0.7 1003388
28 february, sun
sun2800:00−13n499386 0.1 1005352
03:00−15n599488 0.1 1008296
06:00−19nnw499590 0.1 1009223
09:00−18n479357 0.1 1010278
12:00−14nnw479074 0.0 1011433
15:00−13nnw588987 0.0 1013539
18:00−18n359588 0.0 101591
21:00−21n349747 0.0 101749
1 march, mon
mon100:00−22nnw33970 0.0 101930
03:00−23nnw23970 0.0 102125
06:00−24nnw23985 0.0 102221
09:00−19nw23956 0.0 1023137
12:00−14w228767 0.0 1023302
15:00−13wsw349077 0.0 1023320
18:00−18sw349438 0.0 102150
21:00−16sw389452 0.0 1019174
2 march, tue
tue200:00−12ssw41095100 0.1 1015323
03:00−9sw41195100 1.4 1010488
06:00−7sw41096100 1.0 1007406
09:00−2w4897100 1.8 1005407
12:000nw3810094 0.5 1004607
15:000wnw379889 0.6 1003613
18:00−2wnw1299100 0.8 100337
21:00−2nw3898100 2.0 1003350